Home > Time Zones > World Clock > Weather > India > Betul > Past weeks

Flag for India Weather past 2 weeks in Betul, Madhya Pradesh, India

Now
72 °F

Rain. Mostly cloudy.


Feels Like: 65 °F
Forecast: 68 / 72 °F
Wind: 12 mph from West

Location: Nagpur Sonegaon

Current Time: Jul 22, 2014 at 11:45:51 PM

Latest Report: Jul 22, 2014 at 9:40 PM


Visibility: 1 mi

Pressure: 29.50 "Hg

Humidity: 100%

Dew point: 72 °F

Location of BetulLocation

Historic Weather in Betul — Graph

°F

Betul temperature yesterday

Maximum temperature yesterday: 77 °F (at 7:10 AM)
Minimum temperature yesterday: 73 °F (at 8:40 PM)
Average temperature yesterday: 76 °F

Past Weeks' High & Low Weather Summary

 TemperatureHumidityPressure
High100 °F (Jul 8, 2:40 PM)100% (Jul 15, 10:40 AM)29.68 "Hg (Jul 15, 10:40 AM)
Low70 °F (Jul 17, 6:40 PM)40% (Jul 8, 2:40 PM)29.47 "Hg (Jul 14, 4:40 PM)
Average82 °F81%29.56 "Hg
* Reported Jul 7 9:40 PM — Jul 22 9:40 PM, Betul, Weather by CustomWeather, © 2014

Note: Actual official high and low records may vary slightly from our data, if they occured in-between our weather recording intervals... More about our weather records

Advertising

Betul weather history for previous 24 hours

 ConditionsComfort  
Time TempWeatherWind HumidityBarometerVisibility
9:40 PM
Jul 22
72 °FRain. Mostly cloudy.12 mph100%29.50 "Hg1 mi
8:40 PM72 °FRain. Mostly cloudy.12 mph100%29.47 "Hg1 mi
7:40 PM70 °FLight rain. Mostly cloudy.9 mph100%29.47 "Hg1 mi
5:40 PM72 °FLight rain. More clouds than sun.13 mph100%29.47 "Hg1 mi
3:40 PM70 °FRain. More clouds than sun.15 mph100%29.47 "Hg1 mi
2:40 PM72 °FRain. More clouds than sun.12 mph100%29.47 "Hg1 mi
1:40 PM72 °FRain. More clouds than sun.13 mph100%29.47 "Hg1 mi
11:40 AM73 °FRain. More clouds than sun.13 mph100%29.50 "Hg1 mi
10:40 AM73 °FLight rain. More clouds than sun.16 mph100%29.50 "Hg1 mi
9:40 AM73 °FLight rain. More clouds than sun.14 mph100%29.50 "Hg1 mi
8:40 AM73 °FRain. More clouds than sun.12 mph100%29.53 "Hg1 mi
7:40 AM73 °FRain. More clouds than sun.9 mph100%29.53 "HgN/A
6:40 AM73 °FRain. Cloudy.10 mph100%29.50 "Hg1 mi
5:40 AM73 °FRain. Mostly cloudy.12 mph100%29.47 "Hg1 mi
1:40 AM75 °FLight rain. Mostly cloudy.8 mph100%29.50 "Hg2 mi
12:40 AM73 °FLight rain. Mostly cloudy.8 mph100%29.53 "Hg2 mi
Weather by CustomWeather, © 2014

See weather overviewHow to use our weather pages